EW1994 Weather Reports


Display with metric or nautical units.
time (UTC)temp
F
wind
direction
speed
MPH
gust
MPH
rain 1hr
in
rain 24hr
in
rain mn
in
humidity
%
barometer
mb
20260510133023 47 114 0.0 0.0 0.00 0.00 0.00 91 1018.2
20260510131527 47 114 0.0 0.0 0.00 0.00 0.00 91 1018.1
20260510130027 47 114 0.0 0.0 0.00 0.00 0.00 91 1018.1
20260510124516 47 114 0.0 0.0 0.00 0.00 0.00 91 1018.2
20260510123022 47 114 0.0 0.0 0.00 0.00 0.00 91 1018.0
20260510121523 48 114 0.0 0.0 0.00 0.00 0.00 91 1017.9
20260510120027 48 114 0.0 0.0 0.00 0.00 0.00 90 1017.6
20260510114540 48 114 0.0 0.0 0.00 0.00 0.00 90 1017.9
20260510113018 48 114 0.0 0.0 0.00 0.00 0.00 90 1017.7
20260510111528 48 114 0.0 1.0 0.00 0.00 0.00 90 1017.6
20260510110025 49 114 0.0 0.0 0.00 0.00 0.00 90 1017.6
20260510104512 49 114 0.0 0.0 0.00 0.00 0.00 90 1017.6
20260510103016 49 114 0.0 0.0 0.00 0.00 0.00 90 1017.5
20260510101516 49 114 0.0 0.0 0.00 0.00 0.00 90 1017.4
20260510100025 50 114 0.0 0.0 0.00 0.00 0.00 90 1017.2
20260510094517 50 114 0.0 0.0 0.00 0.00 0.00 90 1017.1
20260510093012 50 114 0.0 0.0 0.00 0.00 0.00 90 1016.9
20260510091519 50 114 0.0 0.0 0.00 0.00 0.00 89 1016.7
20260510090016 50 114 0.0 0.0 0.00 0.00 0.00 89 1016.8
20260510084516 51 114 0.0 0.0 0.00 0.00 0.00 89 1016.6
20260510083019 51 114 0.0 0.0 0.00 0.00 0.00 89 1016.5
20260510081514 51 114 0.0 0.0 0.00 0.00 0.00 89 1016.6
20260510080020 51 114 0.0 0.0 0.00 0.00 0.00 88 1016.7
20260510074523 51 114 0.0 0.0 0.00 0.00 0.00 88 1016.6
20260510073018 52 114 0.0 0.0 0.00 0.00 0.00 88 1016.5
20260510071525 52 114 0.0 0.0 0.00 0.00 0.00 88 1016.4
20260510070016 52 114 0.0 0.0 0.00 0.00 0.00 87 1016.5
20260510064521 53 114 0.0 0.0 0.00 0.00 0.00 87 1016.8
20260510063021 53 114 0.0 0.0 0.00 0.00 0.00 87 1016.8
20260510061523 53 114 0.0 0.0 0.00 0.00 0.00 86 1016.5
20260510060020 53 114 0.0 0.0 0.00 0.00 0.00 86 1016.4
20260510054520 54 114 0.0 0.0 0.00 0.00 0.00 85 1016.4
20260510053024 54 114 0.0 0.0 0.00 0.00 0.00 85 1016.5
20260510051524 54 114 0.0 0.0 0.00 0.00 0.00 84 1016.5
20260510050011 55 114 0.0 0.0 0.00 0.00 0.00 83 1016.4
20260510044514 55 114 0.0 0.0 0.00 0.00 0.00 83 1016.3
20260510043015 56 114 0.0 0.0 0.00 0.00 0.00 82 1016.4
20260510041503 56 114 0.0 0.0 0.00 0.00 0.00 81 1016.3
20260510040008 57 114 0.0 0.0 0.00 0.00 0.00 81 1016.4
20260510034513 58 114 0.0 0.0 0.00 0.00 0.00 80 1016.3
20260510033015 59 114 0.0 0.0 0.00 0.00 0.00 78 1016.5
20260510031526 60 114 0.0 0.0 0.00 0.00 0.00 77 1016.6
20260510030007 61 114 0.0 0.0 0.00 0.00 0.00 77 1016.7
20260510024514 62 114 0.0 0.0 0.00 0.00 0.00 75 1016.7
20260510023014 62 114 0.0 0.0 0.00 0.00 0.00 73 1016.8
20260510021527 63 114 0.0 0.0 0.00 0.00 0.00 72 1017.0
20260510020007 63 114 0.0 0.0 0.00 0.00 0.00 71 1017.2
20260510014504 64 132 0.0 1.0 0.00 0.00 0.00 70 1017.3
20260510013010 64 151 0.0 4.0 0.00 0.00 0.00 67 1017.4
20260510011516 65 111 0.0 1.0 0.00 0.00 0.00 69 1017.4
20260510010022 65 111 0.0 1.0 0.00 0.00 0.00 67 1017.6
20260510004505 65 111 0.0 1.0 0.00 0.00 0.00 67 1017.8
20260510003008 65 109 0.0 1.0 0.00 0.00 0.00 65 1017.8
20260510001521 66 109 0.0 2.0 0.00 0.00 0.00 64 1018.0
20260510000020 66 123 0.0 2.0 0.00 0.00 0.00 63 1018.2
20260509234520 67 66 0.0 2.0 0.00 0.00 0.00 61 1018.3
20260509233007 67 66 0.0 3.0 0.00 0.00 0.00 62 1018.3
20260509231511 67 125 0.0 3.0 0.00 0.00 0.00 60 1018.6
20260509230016 68 128 0.0 2.0 0.00 0.00 0.00 58 1018.7
20260509224521 69 177 0.0 2.0 0.00 0.00 0.00 57 1018.8
20260509223023 69 147 0.0 4.0 0.00 0.00 0.00 56 1018.7
20260509221510 68 323 0.0 2.0 0.00 0.00 0.00 58 1018.9
20260509220014 68 182 0.0 1.0 0.00 0.00 0.00 57 1019.1
20260509214530 69 63 0.0 4.0 0.00 0.00 0.00 57 1019.2
20260509213023 68 148 0.0 3.0 0.00 0.00 0.00 58 1019.4
20260509211526 68 167 0.0 4.0 0.00 0.00 0.00 55 1019.5
20260509210013 68 136 0.0 3.0 0.00 0.00 0.00 55 1019.5
20260509204527 68 84 0.0 2.0 0.00 0.00 0.00 58 1019.7
20260509203020 67 283 0.0 2.0 0.00 0.00 0.00 56 1019.9
20260509201525 67 37 0.0 2.0 0.00 0.00 0.00 58 1020.1
20260509200032 66 234 0.0 4.0 0.00 0.00 0.00 59 1020.4
20260509194515 66 204 0.0 4.0 0.00 0.00 0.00 60 1020.7
20260509193025 66 265 0.0 4.0 0.00 0.00 0.00 60 1020.9
20260509191524 66 115 0.0 4.0 0.00 0.00 0.00 60 1021.0
20260509190028 64 111 1.0 6.0 0.00 0.00 0.00 60 1021.1
20260509184511 65 217 0.0 3.0 0.00 0.00 0.00 63 1021.3
20260509183016 64 96 2.0 3.0 0.00 0.00 0.00 59 1021.3
20260509181521 63 11 1.0 3.0 0.00 0.00 0.00 63 1021.4
20260509180023 63 59 1.0 2.0 0.00 0.00 0.00 59 1021.4
20260509174524 62 159 1.0 5.0 0.00 0.00 0.00 65 1021.5
20260509173014 61 63 0.0 3.0 0.00 0.00 0.00 64 1021.6
20260509171519 61 71 0.0 3.0 0.00 0.00 0.00 69 1021.6
20260509170022 60 55 0.0 1.0 0.00 0.00 0.00 70 1021.8
20260509164525 59 57 0.0 2.0 0.00 0.00 0.00 75 1021.9
20260509163025 58 82 0.0 2.0 0.00 0.00 0.00 76 1022.1
20260509161514 57 96 0.0 2.0 0.00 0.00 0.00 79 1022.3
20260509160023 56 132 0.0 2.0 0.00 0.00 0.00 83 1022.4
20260509154527 55 132 0.0 2.0 0.00 0.00 0.00 86 1022.4
20260509153029 52 137 0.0 1.0 0.00 0.00 0.00 90 1022.4
20260509151527 49 138 0.0 0.0 0.00 0.00 0.00 92 1022.6
20260509150021 48 138 0.0 1.0 0.00 0.00 0.00 92 1022.7
20260509144523 46 138 0.0 0.0 0.00 0.00 0.00 92 1022.8
20260509143024 45 138 0.0 0.0 0.00 0.00 0.00 92 1022.9
20260509141529 44 138 0.0 0.0 0.00 0.00 0.00 92 1022.9
20260509140014 44 138 0.0 0.0 0.00 0.00 0.00 91 1023.0
20260509134518 44 138 0.0 0.0 0.00 0.00 0.00 91 1023.0